Other Public Products
Issued by NWS Grand Forks, ND

Home | Current Version | Previous Version | Graphics & Text | Print | Product List | Glossary On
Versions: 1 2 3 4 5 6 7 8 9 10 11 12 13 14 15 16 17 18 19 20 21 22 23 24 25 26 27 28 29 30 31 32 33 34 35 36 37 38 39 40 41 42 43 44 45 46 47 48 49 50
000
FPUS83 KFGF 021331
OPUFGF
PRAIRIE TO PINES WEATHER ROUNDUP
NATIONAL WEATHER SERVICE EASTERN NORTH DAKOTA/GRAND FORKS ND
800 AM CDT TUE SEP 02 2014

 **SATELLITE DATA USED TO AUGMENT SKY COVER AT AUTOMATED STATIONS**
 *****  WEATHER ACROSS EASTERN NORTH DAKOTA  *****

CITY           SKY/WX    TMP DP  RH WIND       PRES   REMARKS
GRAND FORKS    PTSUNNY   54  50  86 SW6       29.77S
GRAND FORKS AF PTSUNNY   54  53  96 W5        29.78R
GRAND CITY NWS   N/A     55 N/A N/A W5          N/A
BUXTON         NOT AVBL
DEVILS LAKE    MOCLDY    55  48  76 CALM      29.78F
FARGO          MOSUNNY   55  50  83 SW8       29.82R
WAHPETON ARPT  SUNNY     54  50  87 CALM      29.86R
$$

 *****  WEATHER ACROSS CENTRAL AND WESTERN NORTH DAKOTA  *****

CITY           SKY/WX    TMP DP  RH WIND       PRES   REMARKS
JAMESTOWN      SUNNY     54  49  83 SW6       29.82S
BISMARCK       PTCLDY    51  48  89 CALM      29.83S
MINOT          CLOUDY    55  51  86 SE5       29.75F
MINOT AFB      MOCLDY    55  54  99 S6        29.74F
GARRISON         N/A     56  54  93 SE3       29.77F
WILLISTON      MOCLDY    53  48  83 SW13      29.77R
DICKINSON      CLEAR     56  44  64 SW16      29.81S
HETTINGER      CLEAR     48  44  86 CALM      29.89R
$$

 *****  OTHER OBSERVATIONS NORTHEAST NORTH DAKOTA  *****

CITY           SKY/WX    TMP DP  RH WIND       PRES   REMARKS
WALHALLA         N/A     55  48  76 W5        29.76R
LANGDON        FAIR      50  48  93 SW7       29.78S
CAVALIER       FAIR      54  48  82 SW5       29.76R
GRAFTON        FAIR      54  50  87 W5        29.77R
CANDO          FAIR      54  50  87 SW3       29.78F
FORT TOTTEN      N/A     54  52  92 NW5       29.95S
ROLLA          FAIR      54  52  94 SW9       29.76S
RUGBY          FAIR      54  54 100 SE3       29.76F
 ***** THE ABOVE OBSERVATIONS ARE NON NWS ARE NOT QUALITY
        CONTROLLED AND MAY MIS-REPORT RAIN FOR SNOW...
$$

 *****  OTHER OBSERVATIONS SOUTHEAST NORTH DAKOTA *****

CITY           SKY/WX    TMP DP  RH WIND       PRES   REMARKS
COOPERSTOWN    NOT AVBL
VALLEY CITY    FAIR      55  55 100 SW3       29.83S
OAKES            N/A     54  54 100 SW3       29.86R
GWINNER        SUNNY     54  54 100 SW7       29.87S
SHEYENNE NWR     N/A     52  50  94 SW5       29.95
BUFFALO          N/A     54  50  86 S6          N/A
WYNDMERE       NOT AVBL
 ***** THE ABOVE OBSERVATIONS ARE NON NWS ARE NOT QUALITY
       CONTROLLED AND MAY MIS-REPORT RAIN FOR SNOW...
$$

  *****  WEATHER ACROSS NORTHERN MINNESOTA  *****

CITY           SKY/WX    TMP DP  RH WIND       PRES   REMARKS
FLAG ISLAND    SUNNY     55  50  82 S3        29.73R
WARROAD        SUNNY     52  48  87 SW7       29.76R
ROSEAU         SUNNY     54  48  82 SW5       29.76S
HALLOCK        MOSUNNY   50  48  93 S5        29.76R
THF RVR FALLS  SUNNY     54  48  82 S6        29.80R
HALSTAD          N/A     55  52  89 S6          N/A
FOSSTON        SUNNY     52  52 100 S6        29.82S
BAUDETTE       SUNNY     51  49  92 CALM      29.75R
WASKISH        SUNNY     55  54  94 CALM      29.78S
CROOKSTON      MOSUNNY   54  50  87 S5        29.80R
$$
  *****  WEATHER ACROSS CENTRAL AND WEST MINNESOTA  *****

CITY           SKY/WX    TMP DP  RH WIND       PRES   REMARKS
BEMIDJI        SUNNY     56  51  84 SW7       29.81S
PARK RAPIDS    SUNNY     54  53  97 CALM      29.84R
WADENA         SUNNY     55  54  94 SW5       29.85S
DETROIT LAKES  MOSUNNY   57  52  82 SW5       29.85S
MOORHEAD       MOSUNNY   55  54  94 CALM      29.84S
FERGUS FALLS   SUNNY     55  54  94 S5        29.87S
ELBOW LAKE     FAIR      55  55  97 CALM      29.87R
MORRIS MN      SUNNY     57  55  94 CALM      29.87S
STAPLES        SUNNY     55  55 100 SW5       29.86S
WHEATON        SUNNY     55  54  94 SW5       29.88S
$$
  *****  WEATHER ELSEWHERE ACROSS MINNESOTA  *****

CITY           SKY/WX    TMP DP  RH WIND       PRES   REMARKS
DULUTH         MOSUNNY   58  51  78 W7        29.83R
INTRNTL FALLS  MOSUNNY   51  49  92 SW7       29.77S
ELY            SUNNY     54  52  94 W6        29.80S
CLOQUET        MOSUNNY   57  52  82 W6        29.84R
BRAINERD       SUNNY     54  53  97 SW5       29.86R
HIBBING        MOSUNNY   51  49  92 CALM      29.82S
ALEXANDRIA     SUNNY     58  55  90 SW6       29.89R
SAINT CLOUD    SUNNY     59  56  89 CALM      29.87R
MINNEAPOLIS    MOSUNNY   63  57  81 W9        29.88R
$$

  *****  WEATHER ACROSS SOUTH DAKOTA  *****

CITY           SKY/WX    TMP DP  RH WIND       PRES   REMARKS
SIOUX FALLS    MOSUNNY   58  55  90 W3        29.94R
BROOKINGS      NOT AVBL
WATERTOWN      SUNNY     54  53  97 S3        29.91S
HURON          SUNNY     54  53  97 SE3       29.92S
SISSETON         N/A     58  53  84 CALM      29.86R
ABERDEEN       SUNNY     50  50 100 S5        29.89R
MITCHELL       SUNNY     55  53  93 CALM      29.94R
PIERRE         CLEAR     54  51  90 W13       29.91S
MOBRIDGE       CLEAR     52  50  93 S6        29.86S
RAPID CITY     CLEAR     49  41  74 CALM      29.96F
$$

  *****  SOME WEATHER IN NEARBY STATES *****

CITY           SKY/WX    TMP DP  RH WIND       PRES   REMARKS
GLASGOW MT     PTCLDY    52  44  74 NW6       29.80R
GREAT FALLS MT CLOUDY    51  39  63 SW8       29.89S
CHEYENNE WY    CLEAR     47  42  83 CALM      30.15S
SCOTTSBLUFF NE CLEAR     47  46  97 E6        30.07S
OMAHA NE       MOSUNNY   60  57  89 SW6       30.00R
DES MOINES IA  MOSUNNY   63  58  83 W5        29.93R
DAVENPORT IA   MOSUNNY   63  62  97 CALM      29.91R FOG
CHICAGO IL     PTSUNNY   70  64  81 CALM      29.88R
EAU CLAIRE WI  CLOUDY    61  60  97 SW6       29.86S
LA CROSSE WI   CLOUDY    62  57  83 S7        29.90R
$$

  *****  SOME NATIONAL WEATHER *****

CITY           SKY/WX    TMP DP  RH WIND       PRES   REMARKS
LA GUARDIA NY  PTSUNNY   84  70  62 W8        29.91S
RALEIGH NC     MOSUNNY   79  70  74 SW7       30.08S
ATLANTA GA     MOSUNNY   76  71  85 W3        30.13R
NEW ORLEANS LA PTSUNNY   81  77  88 SE5       30.06R
OKLAHOMA CITY  PTSUNNY   81  68  64 N7        29.97R THUNDER
ALBUQUERQUE NM CLEAR     66  40  38 NE5       30.15R
SALT LAKE CITY CLEAR     58  40  51 CALM      30.02R
LOS ANGELES CA MOCLDY    70  62  76 E6        29.85S
BOISE ID       CLEAR     56  35  45 SE6       29.95S
SEATTLE WA     MOCLDY    62  53  72 NE7       29.95F
$$

*** WEATHER ACROSS MANITOBA...SASKATCHEWAN AND ONTARIO ***
                ***ONTARIO***

CITY           SKY/WX    TMP DP  RH WIND       PRES   REMARKS
GERALDTON      MOSUNNY   57  55  94 W6        29.66F
THUNDER BAY    MOSUNNY   57  54  88 SW8       29.74R
SIOUX LOOKOUT  MOSUNNY   55  54  94 VRB2      29.71R
TORONTO        PTSUNNY   75  68  78 SW6       29.84F
BIG TROUT LK     N/A     54  52  94 MISG      29.53R
PICKLE LAKE    PTSUNNY   52  50  93 W8        29.64R
DRYDEN         SUNNY     54  52  94 SW7       29.72S
KENORA         MOSUNNY   54  50  87 SW3       29.73S
$$
                *** MANITOBA***

CITY           SKY/WX    TMP DP  RH WIND       PRES   REMARKS
BRANDON        MOCLDY    46  46 100 N6        29.73S
DAUPHIN        MOCLDY    55  48  76 SW5       29.65F
ISLAND LAKE    MOSUNNY   54  52  94 CALM      29.58S
PILOT MOUND      N/A     48  46  93 S2          N/A
THE PAS        MOCLDY    54  50  87 W8        29.60
THOMPSON       MOSUNNY   48  48 100 W3        29.52S
WINNIPEG       PTSUNNY   54  48  82 W7        29.73R
CHURCHILL      LGT RAIN  50  50 100 SE9       29.49S
GILLAM         PTSUNNY   50  50 100 CALM      29.49S
$$
                ***SASKATCHEWAN***

CITY           SKY/WX    TMP DP  RH WIND       PRES   REMARKS
ESTEVAN        MOCLDY    54  50  87 SW8       29.71
KINDERSLEY     MOCLDY    43  43 100 SW3       29.76R
LLOYDMINSTER   PTCLDY    43  41  93 W6        29.72S
PRINCE ALBERT  LGT RAIN  48  48 100 W5        29.67S
REGINA         MOCLDY    46  45  93 NW2       29.71R
YORKTON        LGT RAIN  55  48  76 SW12      29.69R


USA.gov is the U.S. government's official web portal to all federal, state and local government web resources and services.